Terug naar catalogus

STARLINK-30593

ActiefCommunicatieVLEO
NORAD 58112·PAYLOAD·🇺🇸 United States

Gelanceerd Oct 21, 2023 vanaf Vandenberg Space Force Base

Loading…

Volgende Passages (komende 24 uur)

TLE

VersSource: CelesTrak SupGP

Epoch: Sep 14, 2026, 21:11 UTC

1 58112C 23161R   26257.88312500  .00007686  00000+0  22723-3 0  2571
2 58112  53.1598   6.3017 0001229  82.4107 299.7759 15.34366911    11

Volg STARLINK-30593 in realtime met AllMySat

Download on the App Store